Вернуться в каталог

ATLAS 5 CENTAUR DEB

LostHEO
NORAD 49354·DEBRIS·🇺🇸 United States

Запущен Oct 17, 2018 с Cape Canaveral Space Force Station

Loading…

Ближайшие Пролёты (ближайшие 24 часа)

TLE

УстаревшееSource: Space-Track

Эпоха: Jun 22, 2022, 06:46 UTC

1 49354U 18079FF  22173.28219752 -.00000058  00000-0  00000+0 0  9994
2 49354  10.2434 188.9384 4692614  22.7434 352.7143  1.70007481  5048

Отслеживайте ATLAS 5 CENTAUR DEB в реальном времени с AllMySat

Download on the App Store